RH
26 26 27 27 26 26 26 25 24 24 25 25 25 24 22 22 22 21 22 23 23 23 23 22 22 22 24 24 25 24 22 22 23 24 26 28 28 28 27 27 28 27 26 26 27 28 27 26 27 27 27 28 29 30 30 31 31 32 33 34 33 33 34 35 35 33 32 34 36 37 38 40 41 44 47 48 51 54 55 60 65 68 68 66 65
31 32 31 30 29 28 27 27 26 25 25 26 26 24 22 22 22 23 23 23 23 24 24 23 23 22 23 24 23 24 25 27 28 28 27 28 29 29 29 29 29 28 28 28 28 28 28 27 28 28 27 26 24 25 24 24 25 26 28 32 34 34 34 34 35 35 35 35 35 36 37 38 39 40 42 44 46 50 51 52 56 63 69 70 68
33 34 34 34 34 32 29 28 29 29 29 28 26 24 23 22 23 22 23 24 25 25 26 26 26 26 26 26 26 27 27 29 28 28 28 30 31 31 31 31 31 31 30 30 29 29 28 28 28 28 28 28 26 25 25 24 23 24 25 29 33 37 38 38 37 37 39 41 40 38 37 39 39 38 39 41 43 45 47 49 52 56 61 66 67
33 34 36 38 38 37 35 34 34 34 33 31 29 26 25 24 24 25 26 27 28 29 30 30 30 31 31 31 30 29 29 29 29 29 30 31 31 30 31 32 32 33 32 30 30 29 28 29 28 28 28 28 28 28 29 29 28 28 30 32 33 34 35 38 39 36 37 42 45 44 40 39 40 39 37 39 41 42 43 47 50 51 55 59 63
35 36 39 41 41 40 39 37 37 37 36 36 34 30 29 27 28 29 30 31 32 33 35 34 34 34 34 34 33 32 33 32 31 29 29 29 29 28 29 30 31 31 31 31 31 30 29 29 28 27 27 28 28 28 29 30 30 31 34 36 35 34 35 38 40 38 38 41 43 42 40 41 44 43 39 38 39 39 40 41 42 44 48 52 56
40 41 43 45 45 44 43 41 41 40 40 40 39 37 35 32 31 32 34 34 35 37 37 37 38 37 37 37 36 35 35 33 32 31 30 29 28 27 27 28 29 30 31 30 29 30 31 30 28 26 27 29 31 32 31 30 30 32 33 34 34 36 39 40 40 41 42 42 40 37 37 41 46 45 42 41 41 40 39 38 37 38 40 42 44
46 46 48 50 49 49 46 45 45 44 43 42 41 41 38 35 33 33 34 35 35 36 37 38 39 39 39 39 38 35 34 32 30 29 29 28 27 27 28 28 29 30 28 25 23 24 26 28 29 29 29 31 34 37 38 37 37 37 37 37 36 38 40 40 39 40 39 39 39 38 37 40 43 43 41 41 43 42 41 41 39 37 36 38 39
50 49 50 51 51 51 50 48 47 45 42 39 37 38 38 35 32 32 32 34 35 35 36 37 38 39 39 38 37 35 32 29 27 25 25 27 26 26 27 27 27 27 25 22 20 19 18 19 23 27 30 32 35 39 42 43 44 44 43 42 40 40 41 41 41 41 41 42 42 41 41 41 43 42 40 40 41 41 42 43 42 41 39 39 40
50 50 51 51 51 53 52 48 47 45 41 37 36 36 37 35 32 30 32 33 34 36 35 36 36 36 36 34 33 32 30 29 27 25 25 27 26 26 26 25 25 25 25 25 23 19 17 19 22 24 27 30 33 37 38 39 41 41 41 41 41 41 41 40 40 40 41 43 43 43 43 42 41 40 39 40 40 38 39 41 43 47 46 42 42
50 51 53 54 53 55 54 50 48 47 44 39 36 35 37 36 32 30 32 33 34 35 35 34 34 34 34 33 31 31 31 31 30 28 28 27 26 26 26 26 26 27 27 28 28 24 20 24 29 29 28 28 29 30 32 33 34 34 35 35 37 39 41 41 40 39 41 42 42 43 44 44 44 43 41 43 45 44 42 45 51 53 49 42 42
52 53 55 56 56 57 56 53 52 52 48 42 38 36 36 35 31 29 31 33 33 33 33 34 34 34 34 34 32 31 31 30 29 28 27 27 27 26 27 27 27 28 29 29 29 29 27 27 31 32 31 31 31 30 31 31 32 33 34 34 35 36 37 37 38 40 42 43 43 44 45 46 45 43 42 47 53 53 49 49 53 53 50 48 44
53 55 58 59 58 58 58 56 55 54 49 44 40 38 35 33 30 29 31 32 32 31 31 31 32 33 33 33 32 31 30 29 27 27 27 27 27 27 27 28 28 28 29 28 28 30 30 29 29 28 28 30 31 31 31 30 31 31 32 34 34 34 32 32 34 36 38 39 40 41 44 45 44 42 41 45 50 50 48 46 48 51 56 59 51
53 57 59 59 60 60 59 58 57 54 48 44 39 36 33 31 28 29 30 31 30 28 28 29 30 32 32 32 31 30 29 28 27 27 27 27 27 28 27 28 28 28 29 29 28 29 30 31 30 28 27 28 29 30 29 29 29 29 30 32 32 33 33 32 32 33 34 35 34 34 35 36 37 35 37 41 46 46 45 43 44 47 53 57 53
56 59 59 59 60 61 60 59 57 52 47 43 38 35 32 29 27 29 31 29 28 27 28 31 32 32 31 30 30 29 28 28 28 28 28 28 28 28 28 29 29 30 30 29 28 28 28 29 30 30 29 29 28 28 27 27 28 29 29 29 29 30 30 31 33 34 35 35 35 36 34 33 34 34 32 34 39 44 44 41 40 42 46 51 52
59 59 61 60 60 61 61 59 55 51 47 42 38 35 31 28 28 30 30 29 28 30 31 32 32 31 30 29 29 29 28 29 30 29 29 29 29 29 29 30 30 30 29 28 27 25 26 28 29 29 29 29 29 29 29 30 31 30 29 29 28 27 26 27 29 32 35 37 41 43 41 38 42 43 38 33 33 37 38 36 36 37 42 52 55
61 61 62 62 62 62 61 58 53 48 44 39 36 32 30 30 30 30 30 30 31 33 32 31 31 29 29 29 28 29 30 30 31 30 30 29 29 29 28 28 28 28 27 26 24 23 25 27 28 27 28 28 29 30 31 34 34 34 32 30 30 29 28 26 26 28 30 34 39 44 44 43 46 48 45 42 40 40 38 34 34 36 43 53 54
63 62 64 64 65 64 60 55 50 44 38 35 33 31 30 31 30 31 31 32 32 32 31 30 29 28 28 29 29 29 30 30 29 28 27 26 26 26 26 26 27 26 25 24 23 23 24 26 26 27 29 32 35 36 37 38 38 37 37 37 37 35 32 30 28 27 28 29 33 38 39 38 42 45 45 46 48 52 50 42 40 41 42 44 41
63 64 65 64 65 63 58 51 45 39 35 33 31 29 30 31 31 31 32 32 32 31 30 29 29 29 28 28 28 28 27 27 27 26 25 25 25 25 26 27 27 28 27 26 25 25 25 26 27 29 33 38 43 43 42 42 41 40 41 42 42 39 36 34 33 31 30 30 30 31 30 30 33 38 41 43 46 51 51 47 50 54 50 43 38
62 62 64 64 62 59 51 45 41 36 33 31 30 30 31 32 33 33 32 32 31 30 29 28 29 29 28 28 29 29 30 30 30 30 30 30 30 31 31 32 33 34 35 34 33 33 32 31 32 34 37 40 43 44 43 43 43 43 43 43 43 42 41 40 39 37 35 33 31 29 27 25 26 29 33 35 38 43 45 45 50 54 50 44 43
61 62 64 62 58 52 44 39 35 32 31 31 31 33 34 34 33 32 31 30 29 29 28 29 30 31 31 31 32 32 33 34 35 35 36 38 39 40 40 40 41 42 42 42 42 41 39 38 38 39 39 39 40 42 42 43 44 46 46 46 46 45 44 44 43 43 41 39 36 33 30 26 23 23 25 27 32 39 43 42 42 43 42 41 40
62 63 61 56 51 43 36 33 31 32 32 33 33 34 35 34 32 30 29 29 29 29 31 32 33 33 33 33 34 33 34 35 36 38 40 42 45 46 46 46 47 48 48 47 46 45 44 44 45 45 44 43 43 44 43 44 46 47 47 47 45 44 44 44 43 42 41 40 38 36 34 30 26 23 22 23 27 32 36 38 38 40 45 46 42
62 59 54 48 42 34 31 33 34 34 35 35 34 33 32 31 30 28 28 28 30 32 33 33 33 33 33 34 35 35 35 36 37 39 41 44 47 48 48 48 50 51 52 51 50 50 50 51 50 50 50 49 49 49 50 49 50 50 49 49 47 45 44 44 43 42 42 41 39 38 37 35 32 29 25 23 24 26 30 37 39 40 45 50 47
54 51 46 41 36 33 35 37 36 36 36 34 33 31 30 29 28 28 29 31 32 32 32 32 31 30 30 31 33 34 36 37 38 40 41 44 47 49 50 51 52 54 55 55 55 56 56 55 55 54 54 53 52 52 53 53 53 52 51 50 47 45 43 41 41 42 43 43 42 41 39 39 37 35 31 27 25 24 26 31 37 41 46 47 45
45 43 41 39 37 36 37 36 35 34 33 31 30 29 28 27 27 29 31 31 31 30 30 29 28 28 29 30 31 32 34 36 39 43 46 48 50 51 53 55 57 58 59 58 59 60 59 59 58 57 56 55 53 53 53 52 52 51 50 49 49 47 45 42 41 41 42 43 43 41 40 40 40 39 38 34 29 25 24 25 29 36 43 45 42
39 38 38 38 37 36 35 34 33 32 30 28 27 26 26 28 31 32 30 29 29 29 28 26 27 29 30 30 30 32 35 38 40 44 48 51 53 55 58 60 62 62 61 60 60 61 61 60 60 59 58 57 56 56 56 55 53 51 49 49 50 49 48 46 45 44 43 42 42 41 39 39 40 41 40 40 36 31 28 26 25 29 35 39 41
36 36 36 36 34 33 32 32 31 30 28 27 26 25 27 31 34 31 27 27 27 26 25 27 29 31 30 29 30 32 36 39 42 45 47 50 55 58 61 63 64 64 63 62 62 63 64 65 64 63 62 60 60 59 59 58 56 55 54 53 52 52 51 49 49 48 46 43 43 42 41 41 43 43 43 44 44 39 34 31 28 27 28 30 34
35 34 35 34 33 31 31 31 30 29 27 26 25 26 29 33 32 27 25 25 25 24 26 30 31 30 29 29 30 32 35 41 46 49 51 53 58 62 64 66 68 70 70 71 71 71 71 71 70 69 67 66 65 65 63 61 59 58 57 56 55 54 53 50 49 49 47 43 41 41 43 46 48 48 48 49 50 47 42 37 33 30 27 27 28
34 34 35 34 33 32 32 31 29 28 27 26 26 27 30 31 29 25 24 24 24 26 30 31 30 28 27 28 30 34 39 44 49 53 57 60 63 67 71 74 77 78 79 80 80 80 80 78 76 75 74 73 71 70 68 66 64 62 61 59 57 55 53 52 50 49 47 44 43 44 48 52 53 51 51 52 53 51 45 40 36 34 31 31 30
33 35 35 35 33 33 32 30 29 29 28 25 26 29 31 29 24 20 21 22 25 27 30 29 27 25 25 28 33 39 45 50 54 59 65 69 73 77 80 82 82 82 82 81 80 81 81 80 79 77 76 76 75 73 71 69 67 64 62 60 58 55 53 52 52 51 50 50 50 50 52 53 53 52 53 56 58 54 47 41 37 35 35 34 33
35 36 36 35 33 31 29 29 29 28 26 24 27 31 29 23 19 20 22 23 25 27 28 27 25 23 24 30 38 46 52 55 60 66 72 78 83 86 85 84 84 84 83 82 80 80 81 82 81 79 78 77 77 75 71 68 66 64 63 61 59 57 56 56 56 57 57 57 58 59 59 60 59 59 60 63 65 64 56 45 38 36 35 36 36
38 39 36 35 33 29 29 30 29 26 24 26 29 30 27 21 21 23 24 24 25 26 26 25 23 23 26 33 43 51 56 60 64 71 77 82 85 86 85 84 86 87 86 85 83 83 85 84 82 81 80 79 78 75 71 69 68 66 66 65 65 64 63 62 62 62 63 63 64 64 66 66 65 65 65 65 68 71 68 58 47 40 37 36 38
41 39 36 34 32 31 31 31 27 25 25 27 28 27 25 23 23 24 23 23 25 25 24 22 23 26 33 42 49 55 59 65 72 77 80 81 82 82 83 86 88 89 89 87 85 85 86 84 81 81 81 79 78 76 74 73 72 71 70 69 69 68 66 65 66 65 65 67 69 70 71 71 70 69 70 70 71 74 75 69 60 50 45 42 42
39 36 33 32 32 31 30 27 24 23 24 26 26 25 25 25 24 24 23 22 22 22 22 24 28 35 43 50 56 59 65 72 79 81 82 82 83 83 84 87 89 89 91 89 85 82 82 81 80 80 78 78 78 79 78 75 73 71 69 69 69 69 69 70 71 71 72 73 75 76 76 78 78 78 77 77 75 76 76 74 68 60 55 51 50
34 32 31 32 33 32 27 22 19 20 23 25 25 24 25 24 23 21 21 20 21 22 26 31 37 45 51 56 60 66 73 78 81 82 83 84 86 86 86 87 89 89 91 90 83 77 77 79 79 78 77 77 78 79 77 73 70 69 69 70 71 71 74 76 77 79 80 79 78 79 79 80 81 82 83 83 80 77 75 73 71 68 64 60 56
31 31 32 33 33 29 21 17 18 21 24 24 24 24 24 22 20 19 20 20 23 26 33 40 46 51 55 60 66 74 78 80 82 84 84 86 88 89 88 88 88 88 91 91 83 73 71 74 75 75 75 73 72 72 72 70 69 69 70 72 74 75 78 80 80 82 83 81 79 80 81 80 79 79 80 81 80 78 74 71 69 69 68 65 59
32 33 33 33 29 22 15 16 20 23 24 24 24 23 21 19 18 19 20 22 25 30 37 44 49 53 59 65 72 78 79 81 83 85 86 88 90 90 89 88 87 89 92 92 84 74 69 70 71 70 69 67 66 67 68 69 71 74 76 77 78 79 80 82 81 82 83 83 81 81 81 81 80 78 76 75 74 74 74 71 66 65 64 63 59
33 35 34 30 23 16 14 18 21 22 23 23 21 19 18 18 18 18 20 23 26 27 33 42 49 54 61 69 76 78 79 81 84 85 87 90 93 93 92 91 91 93 94 91 85 78 73 72 72 71 71 70 70 70 72 74 77 80 80 79 80 79 80 80 81 82 83 82 81 81 81 81 80 78 76 74 72 71 71 69 65 62 61 59 57
34 34 32 27 20 15 17 20 21 21 21 20 17 17 17 17 17 17 19 24 26 24 28 39 49 56 63 72 76 78 81 84 85 86 89 94 97 97 96 96 96 96 94 90 86 82 78 76 76 77 78 77 77 77 78 81 82 82 80 79 79 80 78 77 77 79 80 81 80 80 80 81 79 78 76 75 73 70 69 68 66 63 61 59 57
33 32 30 23 18 16 18 19 20 19 18 16 16 18 17 16 17 18 19 23 25 23 27 39 52 60 67 72 75 79 83 86 86 87 91 96 98 98 98 98 98 95 92 88 87 86 82 79 79 80 80 80 80 80 80 82 83 83 84 83 81 78 76 76 78 79 80 81 81 79 79 80 80 78 77 76 74 71 70 68 66 62 59 58 57
32 31 28 22 18 17 18 19 18 17 17 16 17 17 16 16 18 19 20 22 23 23 30 42 53 60 66 71 75 80 86 87 86 89 93 97 99 99 99 97 94 91 88 87 87 88 86 83 81 81 81 80 80 79 78 80 83 84 84 84 82 80 81 86 88 86 83 83 82 81 81 81 79 77 76 76 75 72 70 68 67 63 60 59 61
31 30 27 21 18 18 18 18 17 17 17 17 17 17 17 17 18 19 19 21 21 24 31 42 49 54 59 64 68 76 84 87 89 93 97 99 99 98 97 94 90 88 88 88 89 90 89 85 82 81 79 78 77 76 77 81 85 85 85 86 86 87 90 92 92 90 89 88 86 84 84 82 80 76 76 76 75 72 70 67 67 66 65 65 65
31 30 26 21 19 18 17 17 18 17 17 17 17 17 18 17 18 18 18 19 21 24 30 38 46 51 55 55 58 68 82 90 92 96 100 99 96 94 93 92 90 88 88 89 90 91 87 82 79 77 76 75 76 79 82 86 90 90 90 91 91 92 93 94 94 94 95 94 92 90 87 84 82 78 76 75 74 71 70 68 67 66 65 63 61
32 30 26 21 19 17 17 18 18 17 17 17 17 17 18 17 17 17 18 20 22 24 28 35 43 51 55 54 54 64 81 91 95 97 100 98 94 91 90 89 87 85 86 86 87 85 82 78 77 76 76 77 80 84 87 90 93 92 92 91 90 92 94 96 96 96 96 95 95 95 93 89 87 84 81 77 74 70 69 69 67 65 64 65 66
31 28 25 22 18 16 17 18 18 17 16 17 17 17 17 17 17 17 18 20 22 24 27 33 39 45 49 50 52 64 81 92 95 97 99 98 94 90 87 85 82 78 77 78 78 77 77 78 79 80 82 82 85 88 91 93 94 93 92 91 91 91 92 93 94 94 95 95 96 97 96 94 93 90 86 81 76 71 69 69 68 68 69 70 70
30 27 26 22 18 16 16 18 17 16 16 17 17 17 17 17 17 17 18 20 22 24 27 32 36 39 42 43 47 63 81 92 95 96 98 97 95 91 88 87 83 75 69 68 70 71 75 79 82 86 88 89 89 90 91 92 92 93 93 92 89 88 88 90 92 93 94 93 94 95 96 95 95 93 88 81 77 75 74 74 74 73 72 71 69
31 29 27 22 18 16 16 17 16 15 15 16 17 17 17 17 16 16 18 20 22 24 27 32 35 37 37 38 45 61 81 92 94 94 96 98 96 89 83 82 82 76 67 64 66 69 73 78 83 86 88 90 90 90 89 90 91 91 90 87 84 84 86 90 92 93 94 94 94 95 94 93 92 91 88 83 81 81 81 80 80 78 76 74 72
31 30 28 24 20 17 16 16 16 15 15 16 17 17 18 18 16 16 18 20 22 24 26 30 34 38 37 37 42 58 80 92 93 92 96 98 96 90 82 76 73 71 67 67 69 72 76 79 83 86 88 90 90 89 88 88 90 89 86 83 82 83 86 88 90 92 95 95 94 94 95 93 91 89 87 85 84 84 85 83 81 78 76 75 73
31 29 28 26 23 18 15 16 16 14 14 16 17 17 18 18 16 16 18 21 22 24 26 28 31 34 35 34 38 53 76 91 92 91 96 98 97 94 93 88 79 74 73 74 75 76 77 79 82 86 90 89 86 85 87 89 90 88 85 84 85 85 87 88 90 92 94 95 94 94 94 92 89 86 84 80 80 81 83 82 79 76 75 74 73
31 30 29 27 25 20 16 16 16 14 14 16 17 18 19 18 16 15 19 21 22 23 26 26 26 28 31 34 37 47 67 84 91 92 94 97 96 96 98 97 94 90 87 85 84 83 82 82 85 88 88 86 83 84 87 91 91 88 87 87 88 88 89 89 91 92 92 93 93 95 95 91 84 79 76 74 73 76 80 80 77 75 74 73 72
33 32 29 27 26 22 17 16 17 15 14 16 18 19 19 19 16 16 20 22 21 23 25 23 21 24 30 36 39 42 53 70 85 91 92 94 95 95 95 97 98 98 96 93 92 91 88 86 87 89 88 86 85 87 89 92 93 91 90 89 90 90 90 90 91 92 92 92 92 93 94 92 85 79 75 72 71 73 77 79 77 75 73 72 72
34 32 29 27 27 23 18 16 17 15 14 16 19 19 20 19 17 18 20 21 21 23 24 21 19 23 31 36 38 38 41 53 71 85 90 92 92 93 94 94 96 97 98 97 96 95 93 92 92 92 91 89 88 89 90 93 94 93 92 91 92 92 91 92 92 92 92 92 92 92 92 92 90 87 84 81 78 76 76 76 76 75 73 72 73